Columbia, SC

5:53 AM EDT on June 20, 2018 (GMT -0400)
Columbia Metro

Weather History for KCAE - September, 2017

Change the Weather History Date:

Thursday, September 14, 2017

  Actual Average Record
Temperature  
Mean Temperature 79 °F 75 °F  
Max Temperature 88 °F 86 °F 97 °F (1956)
Min Temperature 69 °F 65 °F 47 °F (1985)
Degree Days  
Heating Degree Days 0 0  
Month to date heating degree days 0 0  
Since 1 July heating degree days 0 0  
Cooling Degree Days 14 11  
Month to date cooling degree days 139 172  
Year to date cooling degree days 2247 1940  
Growing Degree Days 28 (Base 50)    
Moisture  
Dew Point 66 °F    
Average Humidity 70    
Maximum Humidity 97    
Minimum Humidity 42    
Precipitation  
Precipitation 0.01 in 0.12 in 2.70 in (1976)
Month to date precipitation 4.11 1.79  
Year to date precipitation 40.86 33.71  
Sea Level Pressure  
Sea Level Pressure 29.94 in    
Wind  
Wind Speed 4 mph (WSW)    
Max Wind Speed 15 mph    
Max Gust Speed 21 mph    
Visibility 9 miles    
Events Fog , Rain    
T = Trace of Precipitation, MM = Missing Value Source: NWS Daily Summary

Daily Weather History Graph

Daily Weather History Graph

Search for Another Location

Airport or City:

Astronomy

Sep. 14, 2017 Rise Set
Actual Time 7:07 AM EDT 7:32 PM EDT
Civil Twilight 6:42 AM EDT 7:57 PM EDT
Nautical Twilight 6:12 AM EDT 8:26 PM EDT
Astronomical Twilight 5:42 AM EDT 8:56 PM EDT
Moon 1:14 AM EDT (9/14) 3:35 PM EDT (9/14)
Length of Visible Light 13h 14m
Length of Day
12h 24m
Waning Crescent, 34% of the Moon is Illuminated
Sep 14
Waning Crescent
Sep 20
New
Sep 27
First Quarter
Oct 5
Full
Oct 12
Last Quarter

Hourly Weather History & Observations

Time (EDT) Temp. Heat Index Dew Point Humidity Pressure Visibility Wind Dir Wind Speed Gust Speed Precip Events Conditions
12:56 AM 72.0 °F - 66.0 °F 81% 29.91 in 10.0 mi South 5.8 mph - N/A   Partly Cloudy
1:56 AM 72.0 °F - 66.0 °F 81% 29.91 in 10.0 mi SW 5.8 mph - N/A   Mostly Cloudy
2:56 AM 73.0 °F - 66.9 °F 81% 29.91 in 10.0 mi SW 4.6 mph - N/A   Overcast
3:56 AM 72.0 °F - 66.9 °F 84% 29.91 in 10.0 mi SSW 3.5 mph - N/A   Overcast
4:12 AM 71.1 °F - 68.0 °F 90% 29.93 in 7.0 mi West 8.1 mph - 0.01 in Rain Light Rain
4:56 AM 72.0 °F - 68.0 °F 87% 29.91 in 10.0 mi Calm Calm - 0.01 in Rain Light Rain
5:56 AM 71.1 °F - 68.0 °F 90% 29.93 in 9.0 mi Calm Calm - 0.00 in   Mostly Cloudy
6:56 AM 70.0 °F - 68.0 °F 93% 29.94 in 3.0 mi Calm Calm - N/A Fog Shallow Fog
7:56 AM 71.1 °F - 68.0 °F 90% 29.95 in 6.0 mi Calm Calm - N/A   Partly Cloudy
8:32 AM 71.1 °F - 68.0 °F 90% 29.97 in 6.0 mi SSE 3.5 mph - N/A   Mostly Cloudy
8:56 AM 72.0 °F - 69.1 °F 91% 29.96 in 7.0 mi Calm Calm - N/A   Overcast
9:56 AM 73.9 °F - 70.0 °F 87% 29.98 in 7.0 mi WSW 5.8 mph - N/A   Overcast
10:28 AM 77.0 °F - 69.1 °F 76% 29.99 in 8.0 mi Variable 3.5 mph - N/A   Scattered Clouds
10:56 AM 79.0 °F - 69.1 °F 72% 29.98 in 9.0 mi West 4.6 mph - N/A   Partly Cloudy
11:56 AM 82.9 °F 85.4 °F 66.9 °F 58% 29.97 in 10.0 mi SW 5.8 mph - N/A   Mostly Cloudy
12:56 PM 86.0 °F 87.6 °F 64.9 °F 49% 29.95 in 10.0 mi WNW 12.7 mph - N/A   Mostly Cloudy
1:56 PM 87.1 °F 87.8 °F 63.0 °F 44% 29.94 in 10.0 mi West 11.5 mph - N/A   Scattered Clouds
2:56 PM 86.0 °F 86.3 °F 62.1 °F 44% 29.93 in 10.0 mi WNW 10.4 mph - N/A   Scattered Clouds
3:56 PM 87.1 °F 87.5 °F 62.1 °F 43% 29.92 in 10.0 mi West 9.2 mph - N/A   Scattered Clouds
4:56 PM 86.0 °F 86.8 °F 63.0 °F 46% 29.92 in 10.0 mi West 6.9 mph - N/A   Mostly Cloudy
5:56 PM 86.0 °F 86.1 °F 61.0 °F 43% 29.92 in 10.0 mi WNW 8.1 mph - N/A   Scattered Clouds
6:56 PM 82.9 °F 84.4 °F 64.0 °F 53% 29.93 in 10.0 mi West 4.6 mph - N/A   Scattered Clouds
7:56 PM 79.0 °F - 64.9 °F 62% 29.94 in 10.0 mi West 3.5 mph - N/A   Partly Cloudy
8:56 PM 73.9 °F - 66.0 °F 76% 29.96 in 10.0 mi Calm Calm - N/A   Scattered Clouds
9:56 PM 73.0 °F - 66.9 °F 81% 29.97 in 10.0 mi Calm Calm - N/A   Partly Cloudy
10:56 PM 72.0 °F - 66.0 °F 81% 29.98 in 10.0 mi Calm Calm - N/A   Clear
11:56 PM 70.0 °F - 66.0 °F 87% 29.99 in 10.0 mi SW 3.5 mph - N/A   Clear